GW6157 Weather Reports


Display with metric or nautical units.
time (UTC)temp
F
wind
direction
speed
MPH
gust
MPH
rain 1hr
in
rain 24hr
in
rain mn
in
humidity
%
barometer
mb
20260504221533 54 233 7.0 15.0 0.00 0.61 0.14 66 1004.2
20260504220015 54 216 5.0 12.0 0.00 0.67 0.14 66 1004.0
20260504214517 54 219 3.0 9.0 0.00 0.72 0.14 69 1003.9
20260504213004 54 228 5.0 11.0 0.00 0.77 0.14 68 1003.9
20260504211505 54 195 5.0 11.0 0.00 0.81 0.14 67 1003.9
20260504210013 53 191 8.0 14.0 0.00 0.85 0.14 67 1003.9
20260504204517 54 214 7.0 14.0 0.00 0.89 0.14 65 1003.9
20260504203019 54 217 7.0 13.0 0.00 0.92 0.14 64 1003.8
20260504201503 54 202 7.0 13.0 0.00 0.97 0.14 64 1003.7
20260504200007 55 232 10.0 18.0 0.00 1.01 0.14 57 1003.7
20260504194513 56 155 8.0 14.0 0.00 1.07 0.14 48 1003.5
20260504193015 56 208 6.0 17.0 0.00 1.13 0.14 47 1003.5
20260504191520 57 162 11.0 18.0 0.00 1.20 0.14 45 1003.5
20260504190029 58 212 12.0 23.0 0.00 1.28 0.14 42 1003.4
20260504184519 59 191 9.0 25.0 0.00 1.36 0.14 40 1003.2
20260504183018 61 153 11.0 26.0 0.00 1.40 0.14 41 1003.0
20260504181522 61 208 12.0 20.0 0.00 1.44 0.14 43 1002.8
20260504180028 62 163 11.0 19.0 0.00 1.48 0.14 41 1002.9
20260504174508 62 201 10.0 21.0 0.00 1.53 0.14 39 1002.8
20260504173013 63 226 13.0 23.0 0.00 1.58 0.14 34 1002.8
20260504171526 62 182 9.0 21.0 0.00 1.62 0.14 34 1003.0
20260504081504 40 360 8.0 17.0 0.00 1.73 0.14 89 1000.0
20260504050020 40 360 5.0 16.0 0.04 1.70 0.11 91 998.5
20260504044523 40 310 5.0 14.0 0.05 1.69 0.10 91 998.4
20260504043005 40 297 8.0 16.0 0.06 1.68 0.09 91 998.3
20260504041509 39 360 5.0 20.0 0.07 1.67 0.08 91 998.2
20260504040016 39 321 8.0 13.0 0.07 1.66 0.07 92 998.1
20260504034518 39 49 4.0 13.0 0.06 1.64 0.05 92 998.0
20260504033027 39 319 10.0 18.0 0.05 1.62 0.03 92 997.7
20260504031506 39 293 6.0 19.0 0.03 1.60 0.01 92 997.6
20260504023021 38 296 6.0 17.0 0.02 1.57 1.57 91 997.2
20260504021526 38 284 9.0 20.0 0.03 1.57 1.57 91 996.9
20260504020012 38 326 10.0 17.0 0.03 1.56 1.56 92 996.8
20260504014519 38 334 8.0 19.0 0.04 1.56 1.56 92 996.6
20260504013007 39 332 7.0 25.0 0.04 1.55 1.55 92 996.5
20260504011503 39 360 10.0 19.0 0.03 1.54 1.54 92 996.4
20260504010006 38 360 6.0 20.0 0.03 1.53 1.53 92 996.3
20260504004503 38 360 7.0 20.0 0.04 1.52 1.52 93 996.2
20260504003006 38 360 7.0 26.0 0.07 1.51 1.51 92 996.2
20260504001504 38 360 11.0 21.0 0.13 1.51 1.51 92 996.2
20260504000004 38 360 9.0 20.0 0.18 1.50 1.50 92 996.2
20260503234503 38 360 7.0 20.0 0.23 1.48 1.48 93 996.1
20260503233006 37 360 7.0 17.0 0.26 1.44 1.44 93 996.1
20260503231504 37 360 8.0 18.0 0.26 1.38 1.38 93 996.2
20260503230004 37 360 8.0 16.0 0.27 1.32 1.32 93 996.4
20260503224504 37 360 5.0 16.0 0.25 1.25 1.25 93 996.5
20260503223003 37 360 7.0 16.0 0.22 1.17 1.17 93 996.5